******************************************************************************* JPL/HORIZONS (2021 GM1) 2025-Dec-12 17:50:11 Rec #:50453393 (+COV) Soln.date: 2022-Dec-20_14:11:42 # obs: 113 (2020-2021) IAU76/J2000 helio. ecliptic osc. elements (au, days, deg., period=Julian yrs): EPOCH= 2459320.5 ! 2021-Apr-16.00 (TDB) Residual RMS= .13159 EC= .04080754957327741 QR= .929489583805706 TP= 2459161.7801017803 OM= 192.9814637527032 W= 207.477965816447 IN= 1.554303156233009 A= .9690334649654483 MA= 163.9937463144764 ADIST= 1.008577346125191 PER= .9539299999999999 N= 1.033227391 ANGMOM= .016919554 DAN= 1.00376 DDN= .93362 L= 40.4507993 B= -.7170978 MOID= .00391051 TP= 2020-Nov-08.2801017803 Asteroid physical parameters (km, seconds, rotational period in hours): GM= n.a. RAD= n.a. ROTPER= n.a. H= 30.4 G= .150 B-V= n.a. ALBEDO= n.a. STYP= n.a. Asteroid non-gravitational force model (AMRAT= m^2/kg;A1,A2,A3=au/d^2;R0=au): AMRAT= 0. A1= 5.761714186519E-11 A2= 0. A3= 0. Non-standard or simulated/proxy model: ALN= 1. NK= 0. NM= 2. NN= 5.093 R0= 1. ASTEROID comments: 1: soln ref.= JPL#18, OCC=1 2: source=ORB; Nongravitational accels. using nonstandard g(r) = (1 au/ r)^2 ******************************************************************************* ******************************************************************************* Ephemeris / WWW_USER Fri Dec 12 17:50:11 2025 Pasadena, USA / Horizons ******************************************************************************* Target body name: (2021 GM1) {source: JPL#18} Center body name: Earth (399) {source: DE441} Center-site name: GEOCENTRIC ******************************************************************************* Start time : A.D. 2020-May-09 03:57:00.0000 UT Stop time : A.D. 2020-May-10 00:00:00.0000 UT Step-size : 1440 minutes ******************************************************************************* Target pole/equ : undefined Target radii : undefined Center geodetic : 0.0, 0.0, -6378.137 {E-lon(deg),Lat(deg),Alt(km)} Center cylindric: 0.0, 0.0, 0.0 {E-lon(deg),Dxy(km),Dz(km)} Center pole/equ : ITRF93 {East-longitude positive} Center radii : 6378.137, 6378.137, 6356.752 km {Equator_a, b, pole_c} Target primary : Sun Vis. interferer : MOON (R_eq= 1737.400) km {source: DE441} Rel. light bend : Sun {source: DE441} Rel. lght bnd GM: 1.3271E+11 km^3/s^2 Small-body perts: Yes {source: SB441-N16} Atmos refraction: NO (AIRLESS) RA format : HMS Time format : CAL Calendar mode : Mixed Julian/Gregorian EOP file : eop.251212.p260310 EOP coverage : DATA-BASED 1962-JAN-20 TO 2025-DEC-12. PREDICTS-> 2026-MAR-09 Units conversion: 1 au= 149597870.700 km, c= 299792.458 km/s, 1 day= 86400.0 s Table cut-offs 1: Elevation (-90.0deg=NO ),Airmass (>38.000=NO), Daylight (NO ) Table cut-offs 2: Solar elongation ( 0.0,180.0=NO ),Local Hour Angle( 0.0=NO ) Table cut-offs 3: RA/DEC angular rate ( 0.0=NO ) ******************************************************************************* Initial IAU76/J2000 heliocentric ecliptic osculating elements (au, days, deg.): EPOCH= 2459320.5 ! 2021-Apr-16.00 (TDB) Residual RMS= .13159 EC= .04080754957327741 QR= .929489583805706 TP= 2459161.7801017803 OM= 192.9814637527032 W= 207.477965816447 IN= 1.554303156233009 Equivalent ICRF heliocentric cartesian coordinates (au, au/d): X=-9.076832783542317E-01 Y=-4.027799197939348E-01 Z=-1.680800699774899E-01 VX= 7.115023429915695E-03 VY=-1.413463831581235E-02 VZ=-5.642432068209993E-03 Asteroid physical parameters (km, seconds, rotational period in hours): GM= n.a. RAD= n.a. ROTPER= n.a. H= 30.4 G= .150 B-V= n.a. ALBEDO= n.a. STYP= n.a. Asteroid non-gravitational force model (AMRAT= m^2/kg;A1,A2,A3=au/d^2;R0=au): AMRAT= 0. A1= 5.761714186519E-11 A2= 0. A3= 0. Non-standard or simulated/proxy model: ALN= 1. NK= 0. NM= 2. NN= 5.093 R0= 1. ******************************************************************************************************************************** Date__(UT)__HR:MN r rdot delta deldot VmagSn VmagOb RNG_3sigma RNGRT_3sig ******************************************************************************************************************************** $$SOE 2020-May-09 03:57 1.008525342634 1.9254705 0.00181412708497 0.0002563 30.4562986 1.8079082 9.9061 0.0001439 $$EOE ******************************************************************************************************************************** Column meaning: TIME Times PRIOR to 1962 are UT1, a mean-solar time closely related to the prior but now-deprecated GMT. Times AFTER 1962 are in UTC, the current civil or "wall-clock" time-scale. UTC is kept within 0.9 seconds of UT1 using integer leap-seconds for 1972 and later years. Conversion from the internal Barycentric Dynamical Time (TDB) of solar system dynamics to the non-uniform civil UT time-scale requested for output has not been determined for UTC times after the next July or January 1st. Therefore, the last known leap-second is used as a constant over future intervals. Time tags refer to the UT time-scale conversion from TDB on Earth regardless of observer location within the solar system, although clock rates may differ due to the local gravity field and no analog to "UT" may be defined for that location. Any 'b' symbol in the 1st-column denotes a B.C. date. First-column blank (" ") denotes an A.D. date. CALENDAR SYSTEM Mixed calendar mode was active such that calendar dates after AD 1582-Oct-15 (if any) are in the modern Gregorian system. Dates prior to 1582-Oct-5 (if any) are in the Julian calendar system, which is automatically extended for dates prior to its adoption on 45-Jan-1 BC. The Julian calendar is useful for matching historical dates. The Gregorian calendar more accurately corresponds to the Earth's orbital motion and seasons. A "Gregorian-only" calendar mode is available if such physical events are the primary interest. NOTE: "n.a." in output means quantity "not available" at the print-time. STATISTICAL UNCERTAINTIES Output includes formal +/- 3 standard-deviation statistical orbit uncertainty quantities. There is a 99.7% (1-D) or 98.9% (2-D) chance the actual value is within given bounds. These statistical calculations assume observational data errors are random. If there are systematic biases (such as timing, reduction or star-catalog errors), results can be optimistic. Because the epoch covariance is mapped using linearized variational partial derivatives, results can also be optimistic for times far from the solution epoch, particularly for objects having close planetary encounters. 'r rdot' = The Sun's apparent range ("r", light-time aberrated) and range-rate ("rdot") relative to the target center, as seen by the observer. A positive "rdot" means the target center was moving away from the Sun, negative means moving toward the Sun. Units: AU and KM/S 'delta deldot' = Apparent range ("delta", light-time aberrated) and range-rate ("delta-dot") of the target center relative to the observer. A positive "deldot" means the target center is moving away from the observer, negative indicates movement toward the observer. Units: AU and KM/S 'VmagSn VmagOb' = Magnitude of target centers' velocity with respect to the Sun ("VmagSn") and the observer ("VmagOb") at the time light left the target center to be observed (print time minus down-leg light-time). These are absolute values of the velocity vectors (total speeds) and do NOT indicate direction of motion. Units: KM/S 'RNG_3sigma RNGRT_3sig' = Range and range rate (radial velocity) formal 3-standard-deviation uncertainties. Units: KM, KM/S Computations by ... Solar System Dynamics Group, Horizons On-Line Ephemeris System 4800 Oak Grove Drive, Jet Propulsion Laboratory Pasadena, CA 91109 USA General site: https://ssd.jpl.nasa.gov/ Mailing list: https://ssd.jpl.nasa.gov/email_list.html System news : https://ssd.jpl.nasa.gov/horizons/news.html User Guide : https://ssd.jpl.nasa.gov/horizons/manual.html Connect : browser https://ssd.jpl.nasa.gov/horizons/app.html#/x API https://ssd-api.jpl.nasa.gov/doc/horizons.html command-line telnet ssd.jpl.nasa.gov 6775 e-mail/batch https://ssd.jpl.nasa.gov/ftp/ssd/horizons_batch.txt scripts https://ssd.jpl.nasa.gov/ftp/ssd/SCRIPTS Author : Jon.D.Giorgini@jpl.nasa.gov ******************************************************************************************************************************** !$$SOF COMMAND = '2021 GM1' QUANTITIES = '19,20,22,39' START_TIME = '2020-05-09 03:57' STEP_SIZE = '1 day' STOP_TIME = '2020-05-10'